Wind_Speed
94 96 101 97 84 79 70 65 57 45 39 40 38 38 48 61 77 81 75 61 55 74 73 66 67 64 71 74 76 69 53 48 43 38 37 39 34 37
96 100 90 75 67 54 51 51 54 53 51 46 45 38 34 44 57 73 82 62 64 54 58 69 56 63 62 67 72 64 52 50 48 41 41 42 36 32
101 99 76 61 51 52 54 57 60 62 63 56 52 48 40 39 51 55 72 78 53 49 51 64 49 65 63 65 65 68 62 55 51 50 43 44 39 34
100 81 63 55 56 59 62 64 66 68 67 63 58 55 46 41 46 52 51 64 61 50 55 50 49 46 51 63 66 65 63 59 59 53 48 45 42 35
79 62 54 59 61 66 64 60 50 49 51 51 58 51 41 40 40 47 50 49 69 52 54 39 48 45 46 53 59 65 61 59 60 54 50 48 45 43
61 54 59 62 68 58 45 43 47 44 43 47 51 56 45 39 39 47 49 51 72 39 39 39 45 39 44 54 56 60 53 59 53 49 50 50 49 45
52 57 61 65 45 41 45 49 43 35 33 41 45 51 47 33 37 36 51 49 47 34 39 37 41 37 42 48 48 55 54 54 50 49 46 50 51 45
54 63 66 42 39 43 43 35 32 26 29 29 37 42 37 29 32 35 44 46 39 45 40 41 26 29 34 39 42 49 49 47 52 45 47 48 48 48
59 62 38 36 42 40 37 33 27 24 24 23 25 34 31 31 26 34 34 36 37 39 30 33 30 29 24 31 44 48 43 47 49 49 53 50 50 48
60 35 30 35 38 41 31 27 25 27 20 19 17 30 29 30 28 36 41 32 34 30 31 32 28 26 30 30 40 46 42 43 47 51 52 52 49 49
41 25 28 32 30 25 21 22 21 19 19 14 21 26 28 34 35 41 39 29 30 34 31 39 35 31 31 32 31 38 37 42 46 46 49 49 48 46
30 24 26 26 28 25 17 16 22 12 15 18 18 22 28 32 40 44 38 37 37 38 39 38 43 37 34 34 37 39 41 43 44 43 47 49 47 43
27 26 23 24 27 25 12 15 14 7 10 11 18 26 25 27 32 27 28 42 38 38 36 42 42 36 33 37 37 41 43 41 41 48 53 44 43 42
26 26 25 23 22 23 13 12 14 7 14 17 22 22 24 31 31 29 31 36 38 38 41 45 42 34 33 37 41 40 40 40 46 47 44 43 42 41
29 22 23 21 18 16 13 14 20 20 20 26 30 36 36 35 31 27 28 34 42 47 53 54 44 36 39 41 42 41 41 48 48 43 42 43 43 44
30 24 17 14 13 11 9 8 17 19 21 28 35 40 38 34 31 29 27 37 44 51 52 52 44 45 46 45 42 44 47 43 39 39 42 43 43 43
23 24 18 10 8 7 7 8 9 10 14 19 28 34 25 20 19 21 26 32 34 35 34 31 33 34 36 37 37 37 33 36 39 38 39 41 42 40
16 17 19 18 16 10 5 5 9 12 13 14 17 18 19 20 22 20 23 25 25 24 22 22 23 24 23 23 25 29 34 35 36 38 38 39 40 41
18 16 16 15 15 13 10 7 4 2 5 8 9 10 12 17 19 19 21 22 22 21 21 21 21 23 25 28 31 32 32 32 34 37 38 38 38 39
20 21 19 16 14 13 10 8 6 3 2 2 3 8 12 14 15 17 17 17 17 19 21 24 24 24 23 23 25 28 29 32 34 33 34 35 37 39
20 21 21 22 19 14 11 9 8 5 4 5 8 10 11 10 10 11 12 14 15 16 17 17 16 17 19 20 22 24 28 30 33 36 38 41 42 42
26 25 25 26 24 22 18 15 12 9 7 8 8 9 10 12 14 15 16 16 17 17 18 19 20 22 25 27 30 34 36 38 41 42 44 45 47 49
31 31 32 32 29 27 25 23 19 17 16 15 14 14 13 13 13 14 15 17 19 21 23 25 28 31 34 36 38 39 41 43 45 46 49 51 54 56
Wind_Direction
296 296 305 313 305 296 295 291 288 290 290 286 286 272 257 256 248 242 239 224 239 235 237 245 246 243 250 245 247 241 236 238 235 245 249 257 263 258
299 309 314 302 297 297 294 291 288 286 287 280 281 280 277 256 249 245 241 246 229 232 230 234 241 242 247 244 240 240 232 234 228 245 245 255 254 260
307 315 308 298 297 294 289 289 288 285 282 275 271 271 274 271 246 244 241 240 245 240 240 228 238 240 246 250 245 235 228 229 232 243 243 250 255 257
312 311 297 294 295 294 291 288 287 283 279 278 270 267 266 264 249 238 238 231 229 236 235 226 232 234 239 239 234 237 237 223 231 238 244 247 251 256
310 299 295 297 296 296 293 289 286 283 275 270 264 263 259 261 249 234 232 233 228 233 235 229 228 238 234 241 238 238 225 221 231 234 236 243 251 259
304 302 300 300 301 298 292 290 291 288 279 272 258 254 257 253 243 238 226 230 232 227 233 230 225 223 224 240 235 231 227 227 226 227 235 242 249 254
304 303 302 305 298 295 296 297 295 285 282 279 255 245 247 251 247 236 227 220 220 226 226 212 215 211 220 231 235 230 228 227 225 224 231 240 244 255
305 307 307 298 295 298 298 297 292 280 283 285 256 241 242 245 237 226 220 210 213 220 220 225 212 209 215 229 237 229 223 224 228 224 235 240 243 249
308 308 296 296 300 304 297 295 285 280 280 281 261 237 227 236 209 209 201 209 228 223 217 225 229 236 234 228 238 230 223 224 229 229 233 237 245 248
309 297 296 302 303 305 298 290 283 272 274 288 223 212 209 204 200 203 193 206 222 224 212 237 239 233 247 228 229 230 229 229 230 232 233 237 243 246
306 294 301 307 311 318 298 285 310 290 263 240 224 189 193 191 188 192 185 205 206 212 217 228 233 226 242 230 225 231 232 233 236 236 237 238 242 248
302 296 307 308 318 323 290 289 335 290 217 217 214 186 191 192 185 194 203 217 218 226 231 217 223 231 243 239 228 228 228 236 234 238 239 240 247 249
304 295 296 310 315 327 308 296 324 252 218 189 168 189 198 187 186 194 207 216 237 238 219 213 215 222 227 233 230 227 233 234 236 238 241 246 251 252
312 294 290 302 311 329 354 342 280 224 232 200 172 173 185 199 208 232 238 236 229 216 212 210 212 215 221 227 230 233 235 235 239 242 246 247 246 247
340 309 293 296 302 327 346 297 266 253 244 231 204 194 201 216 225 231 240 227 214 211 205 205 204 208 218 226 229 231 235 240 242 247 246 245 247 248
360 345 315 301 297 319 323 317 270 260 244 242 216 207 212 224 230 234 233 227 218 212 216 211 205 211 218 221 225 230 237 244 247 244 247 251 253 252
3 2 6 353 328 302 289 287 287 273 261 249 232 232 245 235 224 225 226 222 224 224 221 216 215 223 230 236 240 244 249 245 246 252 255 256 254 252
358 0 4 6 15 19 6 284 258 251 246 242 246 241 235 230 229 217 214 219 217 213 208 210 216 222 227 232 238 241 242 248 253 254 255 253 253 255
353 351 352 350 350 354 0 9 39 146 207 209 198 190 198 197 196 205 211 214 216 218 219 223 227 232 237 240 242 246 252 254 256 256 254 255 257 259
356 352 342 341 344 340 338 343 337 302 249 212 192 181 179 181 186 194 202 214 226 232 234 235 234 235 239 244 248 248 249 250 252 254 255 255 254 255
340 344 342 339 330 323 319 313 302 300 287 249 226 219 223 228 229 229 230 233 232 234 237 239 238 239 243 245 247 249 251 253 254 253 255 257 261 265
328 322 322 325 327 320 306 293 287 280 265 254 247 239 231 225 222 221 222 224 228 232 234 235 241 244 247 249 250 251 253 255 259 262 265 267 269 270
315 317 316 311 309 307 301 295 286 279 272 268 263 257 253 250 249 250 252 254 255 255 255 254 253 254 255 257 261 263 265 267 269 270 271 272 272 273
Height
5618 5603 5590 5580 5567 5555 5547 5540 5533 5534 5534 5533 5531 5533 5536 5540 5548 5556 5562 5578 5586 5600 5611 5620 5627 5630 5638 5645 5650 5656 5665 5671 5673 5677 5680 5683 5683 5684
5591 5578 5566 5554 5544 5537 5531 5526 5521 5519 5519 5520 5519 5520 5521 5523 5526 5535 5544 5555 5565 5575 5588 5601 5604 5614 5619 5625 5633 5640 5648 5657 5659 5665 5668 5671 5673 5674
5570 5557 5545 5534 5528 5524 5517 5512 5507 5503 5500 5506 5505 5506 5510 5510 5512 5518 5528 5541 5550 5554 5568 5581 5588 5598 5604 5609 5617 5624 5633 5639 5647 5653 5657 5660 5660 5661
5548 5534 5526 5520 5513 5508 5502 5496 5490 5485 5479 5482 5486 5489 5495 5497 5498 5502 5510 5522 5532 5542 5547 5558 5572 5579 5585 5593 5599 5605 5616 5623 5633 5639 5644 5648 5650 5649
5528 5516 5511 5504 5498 5490 5482 5476 5472 5467 5464 5464 5466 5470 5480 5482 5485 5490 5495 5504 5519 5530 5536 5539 5553 5561 5568 5578 5583 5590 5600 5609 5620 5625 5629 5635 5638 5639
5509 5503 5496 5487 5479 5471 5464 5461 5458 5453 5450 5448 5449 5453 5464 5469 5471 5473 5483 5497 5509 5519 5524 5530 5539 5544 5553 5564 5571 5577 5584 5595 5601 5608 5615 5621 5625 5628
5499 5491 5482 5472 5463 5458 5453 5448 5443 5441 5438 5436 5435 5439 5450 5458 5462 5467 5476 5488 5499 5507 5516 5522 5530 5533 5541 5554 5559 5564 5571 5580 5587 5593 5600 5607 5612 5615
5488 5478 5468 5459 5453 5448 5442 5439 5436 5433 5431 5426 5424 5431 5444 5449 5451 5458 5470 5483 5493 5504 5510 5516 5522 5524 5531 5540 5546 5554 5558 5565 5574 5578 5587 5593 5598 5601
5477 5468 5458 5452 5446 5440 5434 5430 5428 5426 5424 5421 5420 5426 5438 5445 5447 5455 5463 5478 5487 5495 5502 5508 5514 5520 5524 5526 5536 5544 5547 5553 5561 5567 5574 5579 5584 5586
5467 5459 5453 5447 5439 5433 5427 5424 5422 5420 5419 5417 5415 5422 5429 5433 5442 5450 5459 5470 5480 5487 5494 5499 5505 5511 5516 5519 5528 5535 5538 5544 5550 5556 5561 5566 5570 5573
5458 5452 5447 5440 5435 5428 5423 5421 5420 5414 5412 5414 5415 5419 5424 5430 5438 5450 5460 5466 5475 5481 5487 5495 5500 5505 5509 5512 5515 5525 5529 5534 5539 5544 5550 5553 5556 5560
5452 5447 5443 5437 5432 5426 5420 5418 5416 5411 5411 5412 5416 5423 5429 5434 5439 5448 5454 5461 5467 5473 5479 5486 5494 5498 5500 5506 5509 5514 5518 5524 5529 5534 5539 5540 5544 5548
5445 5442 5439 5435 5429 5425 5419 5418 5418 5416 5417 5418 5418 5425 5431 5438 5443 5448 5453 5459 5462 5467 5471 5479 5484 5487 5491 5497 5500 5505 5510 5515 5519 5524 5527 5528 5532 5536
5440 5438 5435 5433 5428 5423 5417 5418 5419 5420 5421 5421 5423 5426 5431 5436 5439 5441 5444 5449 5452 5457 5460 5468 5473 5477 5483 5488 5492 5496 5501 5506 5510 5514 5515 5517 5521 5524
5439 5434 5431 5429 5426 5423 5419 5418 5418 5419 5420 5420 5421 5423 5426 5431 5434 5435 5437 5439 5440 5444 5451 5456 5462 5468 5473 5477 5482 5488 5495 5498 5500 5502 5505 5509 5511 5513
5441 5434 5428 5425 5423 5421 5420 5419 5419 5419 5420 5420 5420 5421 5423 5425 5429 5431 5433 5437 5440 5442 5446 5448 5450 5455 5463 5470 5475 5481 5484 5488 5493 5496 5500 5500 5502 5503
5444 5439 5432 5426 5423 5420 5419 5418 5418 5418 5418 5418 5419 5421 5423 5423 5427 5429 5433 5437 5442 5445 5447 5448 5452 5458 5464 5468 5472 5475 5478 5485 5486 5485 5488 5490 5492 5493
5443 5441 5436 5432 5428 5424 5420 5418 5417 5417 5418 5419 5419 5420 5422 5424 5426 5429 5431 5434 5438 5441 5443 5446 5450 5454 5458 5462 5466 5470 5474 5474 5475 5476 5477 5479 5481 5483
5443 5440 5437 5434 5431 5428 5425 5422 5420 5418 5417 5418 5419 5420 5421 5423 5425 5427 5429 5432 5435 5437 5440 5443 5447 5450 5454 5457 5460 5462 5462 5462 5465 5467 5469 5470 5472 5473
5443 5440 5438 5435 5432 5429 5426 5424 5422 5420 5419 5418 5418 5419 5421 5423 5425 5426 5428 5430 5432 5435 5438 5440 5443 5445 5447 5448 5449 5451 5453 5457 5459 5459 5460 5461 5461 5461
5442 5439 5437 5434 5431 5429 5427 5424 5423 5421 5420 5420 5419 5419 5419 5420 5422 5424 5425 5427 5429 5431 5433 5435 5437 5439 5440 5442 5444 5446 5447 5448 5449 5449 5450 5449 5449 5447
5438 5436 5434 5431 5429 5426 5425 5423 5422 5420 5419 5418 5418 5418 5418 5418 5419 5420 5422 5423 5425 5426 5428 5429 5431 5433 5434 5435 5436 5436 5437 5437 5437 5437 5437 5435 5434 5432
5432 5430 5427 5425 5424 5422 5420 5418 5417 5416 5415 5415 5415 5415 5415 5415 5415 5415 5416 5418 5419 5420 5421 5423 5424 5425 5426 5426 5426 5425 5425 5424 5423 5422 5420 5419 5418 5417